Погода в Аннино

Россия / Санкт-Петербург и Ленинградская область     59°46′22″N   30°03′23″E
темп.,
°C
ветер,
м/с
пор.,
м/с
влажн.,
%
обл.,
%
осадки,
мм/ч
давл.,
гПа
погр.,
м
17 мая, пн
пн1700:00+11ююв11765 0.0 101110
03:00+10юв22855 0.0 101222
06:00+11юв379269 0.0 1012170
09:00+17юв467085 0.0 1012455
12:00+20юв6855100 0.0 10121280
15:00+22юв6950100 0.0 10102006
18:00+21юв4958100 0.0 1009530
21:00+17вюв387594 0.0 1008200
18 мая, вт
вт1800:00+14сз2495100 2.2 1008112
03:00+13всв3598100 3.6 1006136
06:00+14в3898100 0.0 1004269
09:00+19юв5885100 0.0 1003589
12:00+22ююв6106997 0.0 10021178
15:00+23ю71169100 1.4 10021385
18:00+23ююз487145 0.7 1001945
21:00+16вюв61097100 9.9 1003322
19 мая, ср
ср1900:00+15ююв399888 1.2 1004299
03:00+14сз129869 1.4 100362
06:00+13ссв139787 0.0 1003174
09:00+17юв3685100 0.1 1003765
12:00+18ююз588253 2.3 1004925
15:00+15з458698 3.1 1006563
18:00+15зсз3476100 0.0 1006636
21:00+12сз2387100 0.1 1007137
20 мая, чт
чт2000:00+11ссз239389 0.1 1007115
03:00+10ссз1197100 0.1 100720
06:00+11с1191100 0.0 100798
09:00+14всв2385100 0.0 1006355
12:00+16всв2386100 0.0 1005497
15:00+15с4793100 2.2 1001459
18:00+14ссз4998100 17.8 1000376
21:00+13зсз3598100 18.2 998295
21 мая, пт
пт2100:00+11з51098100 0.4 998500
03:00+9зюз61395100 1.9 999542
06:00+10зюз71393100 1.1 1001951
09:00+9юз71493100 1.7 1004636
12:00+15зюз7116283 0.0 10071381
15:00+17зюз694581 0.0 10092326
18:00+16зюз6105713 0.0 10101979
21:00+11зюз3772100 0.2 1011231